Location: Caixon
(43.4106°N, 0.0273°E)
Time: 22:05:40
(UTC+00:00)

ATLAS CENTAUR R/B - Pass Details

Date: 16 October 2021
Orbit: 452 x 688 km, 64.7° (Epoch: 06 December)

Event Time Altitude Azimuth Distance (km) Brightness Sun altitude
Exits shadow 03:35:34 20° 118° (ESE) 1,247 3.5 -29.5°
Maximum altitude 03:35:53 20° 111° (ESE) 1,245 3.6 -29.4°
Drops below altitude 10° 03:38:54 10° 63° (ENE) 1,826 4.9 -28.9°
Sets 03:41:38 0° 47° (NE) 2,778 5.8 -28.4°
